AP-SC-CHS-SC OtherSurfaceObservations, SC

000

SXUS52 KCHS 151527

OSOCHS

MARINE OBSERVATIONS

NATIONAL WEATHER SERVICE CHARLESTON SC

1100 AM EDT WED JUL 15 2015

...DOWNTOWN CHARLESTON AND HARBOR...

CITY SKY/WX TMP DP RH WIND PRES REMARKS

WATERFRONT PRK N/A 86 72 62 W8 29.77F HX 92

...LAKE MOULTRIE...

CITY SKY/WX TMP DP RH WIND PRES REMARKS

PINOPOLIS NOT AVBL

...LAKE AND SUPPLEMENTAL COASTAL OBSERVATIONS...

STATION/POSITION TIME TEMP WIND PRES WAVE SWELL

AIR SEA DIR/SP/G HT/PER HT/PER/DIR

(UTC) (F) (DEG/KT/KT) (MB) (FT/S) (FT/S/D)

FORT PULASKI 1500 85 85 270/ 15/ 19 1010.7F

SAPELO ISLAND 1500 86 260/ 12 1011.0F

UPR LAKE MARION NOT AVBL

WINYAH BAY 1445 84 270/ 11 1007.0F

LAKE MURRAY 1500 82 260/ 8/ 10 1009.1F

ACE BASIN NERRS 1400 84 260/ 5 1010.0

...C-MAN AND BUOY OBSERVATIONS...

STATION/POSITION TIME TEMP WIND PRES WAVE SWELL

AIR SEA DIR/SP/G HT/PER HT/PER/DIR

(UTC) (F) (DEG/KT/KT) (MB) (FT/S) (FT/S/D)

BUOY 41004 1450 81 83 250/ 17/ 21 1008.1F 5/ 6 2/14

BUOY 41008 1450 81 80 260/ 14/ 16 1011.4F 3/ 4

FOLLY BEACH CMAN 1500 88 260/ 10/ 15 1008.7F

CAPERS NS BUOY 1408 81 260/ 14/ 17 1009.3F

FRIPP NS BUOY 1400 84 270/ 16/ 17 1009.8F

5E ST. MARYS GA 1421 80 N/A 2/ 4

STATION/POSITION TIME TEMP WIND PRES WAVE SWELL

AIR SEA DIR/SP/G HT/PER HT/PER/DIR

(UTC) (F) (DEG/KT/KT) (MB) (FT/S) (FT/S/D)

FRYING PAN BUOY 1450 81 81 250/ 17/ 21 1007.2F 6/ 7 2/210/11

BUOY 41025 1450 81 83 240/ 21/ 25 1006.5S 8/ 7 2/310/11

CAPE LOOKOUT NC 1500 81 250/ 14/ 17 1006.6F

BUOY 41002 1450 83 81 230/ 17/ 23 1012.5F 8/ 7

BUOY 41010 1420 84 85 230/ 16/ 17 1015.5F

ST AUGUSTINE FL 1500 87 74 240/ 9/ 11 1014.6F

$$

Delivered by Weather Underground Inc. Wed Jul 15 2015 11:27AM EDT